Time,TemperatureF,DewpointF,PressureIn,WindDirection,WindDirectionDegrees,WindSpeedMPH,WindSpeedGustMPH,Humidity,HourlyPrecipIn,Conditions,Clouds,dailyrainin,SoftwareType,DateUTC
2013-08-02 00:01:00,63.5,47.5,29.86,NE,40,6.0,6.0,56,0.00,,,0.00,Wunderground v.1.15,2013-08-02 06:01:00,
2013-08-02 00:11:00,63.4,47.4,29.86,North,11,5.0,8.0,56,0.00,,,0.00,Wunderground v.1.15,2013-08-02 06:11:00,
2013-08-02 00:20:00,63.4,46.5,29.87,North,4,4.0,5.0,54,0.00,,,0.00,Wunderground v.1.15,2013-08-02 06:20:00,
2013-08-02 00:30:00,63.5,47.0,29.87,NE,55,4.0,4.0,55,0.00,,,0.00,Wunderground v.1.15,2013-08-02 06:30:00,
2013-08-02 00:40:00,63.7,47.2,29.87,NNE,27,5.0,5.0,55,0.00,,,0.00,Wunderground v.1.15,2013-08-02 06:40:00,
2013-08-02 00:51:00,63.5,46.6,29.87,NNE,25,6.0,11.0,54,0.00,,,0.00,Wunderground v.1.15,2013-08-02 06:51:00,
2013-08-02 01:00:00,63.5,47.0,29.87,NE,49,4.0,4.0,55,0.00,,,0.00,Wunderground v.1.15,2013-08-02 07:00:00,
2013-08-02 01:10:00,63.5,47.0,29.87,North,356,3.0,5.0,55,0.00,,,0.00,Wunderground v.1.15,2013-08-02 07:10:00,
2013-08-02 01:20:00,63.4,46.9,29.85,NNE,17,4.0,5.0,55,0.00,,,0.00,Wunderground v.1.15,2013-08-02 07:20:00,
2013-08-02 01:30:00,63.2,47.2,29.84,NE,45,3.0,3.0,56,0.00,,,0.00,Wunderground v.1.15,2013-08-02 07:30:00,
2013-08-02 01:40:00,63.1,47.6,29.84,NNE,18,4.0,4.0,57,0.00,,,0.00,Wunderground v.1.15,2013-08-02 07:40:00,
2013-08-02 01:50:00,62.9,48.3,29.84,North,8,3.0,5.0,59,0.00,,,0.00,Wunderground v.1.15,2013-08-02 07:50:00,
2013-08-02 02:00:00,63.1,48.1,29.84,North,8,1.0,5.0,58,0.00,,,0.00,Wunderground v.1.15,2013-08-02 08:00:00,
2013-08-02 02:10:00,62.9,48.3,29.84,North,8,2.0,2.0,59,0.00,,,0.00,Wunderground v.1.15,2013-08-02 08:10:00,
2013-08-02 02:20:00,61.5,50.4,29.82,North,359,3.0,3.0,67,0.00,,,0.01,Wunderground v.1.15,2013-08-02 08:20:00,
2013-08-02 02:30:00,59.3,50.6,29.84,North,359,2.0,2.0,73,0.13,,,0.03,Wunderground v.1.15,2013-08-02 08:30:00,
2013-08-02 02:40:00,58.1,50.9,29.84,North,359,1.0,1.0,77,0.04,,,0.03,Wunderground v.1.15,2013-08-02 08:40:00,
2013-08-02 02:50:00,57.8,51.0,29.85,North,359,1.0,1.0,78,0.00,,,0.03,Wunderground v.1.15,2013-08-02 08:50:00,
2013-08-02 03:01:00,57.5,51.4,29.85,North,359,1.0,1.0,80,0.00,,,0.03,Wunderground v.1.15,2013-08-02 09:01:00,
2013-08-02 03:10:00,57.3,50.5,29.85,North,359,2.0,2.0,78,0.00,,,0.03,Wunderground v.1.15,2013-08-02 09:10:00,
2013-08-02 03:20:00,57.2,50.7,29.85,North,359,3.0,3.0,79,0.00,,,0.03,Wunderground v.1.15,2013-08-02 09:20:00,
2013-08-02 03:30:00,57.5,50.7,29.83,North,354,2.0,2.0,78,0.00,,,0.03,Wunderground v.1.15,2013-08-02 09:30:00,
2013-08-02 03:40:00,57.5,50.7,29.83,North,0,2.0,5.0,78,0.00,,,0.03,Wunderground v.1.15,2013-08-02 09:40:00,
2013-08-02 03:51:00,58.1,50.6,29.83,North,0,2.0,2.0,76,0.00,,,0.03,Wunderground v.1.15,2013-08-02 09:51:00,
2013-08-02 04:00:00,58.1,51.3,29.83,North,0,0.0,0.0,78,0.00,,,0.03,Wunderground v.1.15,2013-08-02 10:00:00,
2013-08-02 04:11:00,57.3,50.1,29.83,North,0,2.0,5.0,77,0.00,,,0.03,Wunderground v.1.15,2013-08-02 10:11:00,
2013-08-02 04:20:00,56.9,50.1,29.87,North,0,3.0,3.0,78,0.00,,,0.03,Wunderground v.1.15,2013-08-02 10:20:00,
2013-08-02 04:30:00,56.7,50.3,29.87,North,0,2.0,2.0,79,0.00,,,0.03,Wunderground v.1.15,2013-08-02 10:30:00,
2013-08-02 04:41:00,56.7,50.3,29.87,North,0,2.0,2.0,79,0.00,,,0.03,Wunderground v.1.15,2013-08-02 10:41:00,
2013-08-02 04:50:00,57.3,51.2,29.87,North,0,0.0,0.0,80,0.00,,,0.03,Wunderground v.1.15,2013-08-02 10:50:00,
2013-08-02 05:00:00,57.6,51.5,29.86,North,0,0.0,0.0,80,0.00,,,0.03,Wunderground v.1.15,2013-08-02 11:00:00,
2013-08-02 05:10:00,57.6,51.1,29.86,North,0,0.0,0.0,79,0.00,,,0.03,Wunderground v.1.15,2013-08-02 11:10:00,
2013-08-02 05:20:00,57.8,51.3,29.90,North,0,0.0,0.0,79,0.00,,,0.03,Wunderground v.1.15,2013-08-02 11:20:00,
2013-08-02 05:30:00,57.0,50.2,29.90,North,0,1.0,2.0,78,0.00,,,0.03,Wunderground v.1.15,2013-08-02 11:30:00,
2013-08-02 05:40:00,56.6,50.2,29.90,North,0,1.0,1.0,79,0.00,,,0.03,Wunderground v.1.15,2013-08-02 11:40:00,
2013-08-02 05:50:00,55.7,49.6,29.92,North,11,3.0,5.0,80,0.00,,,0.03,Wunderground v.1.15,2013-08-02 11:50:00,
2013-08-02 06:00:00,55.6,50.2,29.92,North,11,4.0,4.0,82,0.00,,,0.03,Wunderground v.1.15,2013-08-02 12:00:00,
2013-08-02 06:10:00,56.2,50.8,29.92,North,11,1.0,1.0,82,0.00,,,0.03,Wunderground v.1.15,2013-08-02 12:10:00,
2013-08-02 06:20:00,56.6,51.2,29.93,North,11,0.0,0.0,82,0.00,,,0.03,Wunderground v.1.15,2013-08-02 12:20:00,
2013-08-02 06:31:00,56.6,50.5,29.92,North,11,3.0,3.0,80,0.00,,,0.03,Wunderground v.1.15,2013-08-02 12:31:00,
2013-08-02 06:40:00,57.2,51.1,29.92,North,11,0.0,0.0,80,0.00,,,0.03,Wunderground v.1.15,2013-08-02 12:40:00,
2013-08-02 06:50:00,57.3,50.8,29.93,North,11,0.0,0.0,79,0.00,,,0.03,Wunderground v.1.15,2013-08-02 12:50:00,
2013-08-02 07:01:00,56.9,50.5,29.93,North,11,1.0,2.0,79,0.00,,,0.03,Wunderground v.1.15,2013-08-02 13:01:00,
2013-08-02 07:10:00,56.7,50.3,29.93,North,11,2.0,2.0,79,0.00,,,0.03,Wunderground v.1.15,2013-08-02 13:10:00,
2013-08-02 07:21:00,56.9,50.1,29.94,North,11,2.0,2.0,78,0.00,,,0.03,Wunderground v.1.15,2013-08-02 13:21:00,
2013-08-02 07:30:00,57.3,50.8,29.94,North,11,0.0,0.0,79,0.00,,,0.03,Wunderground v.1.15,2013-08-02 13:30:00,
2013-08-02 07:40:00,58.1,51.6,29.94,North,11,0.0,0.0,79,0.00,,,0.03,Wunderground v.1.15,2013-08-02 13:40:00,
2013-08-02 07:51:00,58.7,51.9,29.94,North,11,1.0,2.0,78,0.00,,,0.03,Wunderground v.1.15,2013-08-02 13:51:00,
2013-08-02 08:00:00,59.5,51.6,29.93,North,11,1.0,1.0,75,0.00,,,0.03,Wunderground v.1.15,2013-08-02 14:00:00,
2013-08-02 08:11:00,60.5,52.5,29.93,North,11,1.0,1.0,75,0.00,,,0.03,Wunderground v.1.15,2013-08-02 14:11:00,
2013-08-02 08:20:00,61.5,51.6,29.93,North,11,0.0,0.0,70,0.00,,,0.03,Wunderground v.1.15,2013-08-02 14:20:00,
2013-08-02 08:30:00,63.4,51.4,29.92,North,11,0.0,0.0,65,0.00,,,0.03,Wunderground v.1.15,2013-08-02 14:30:00,
2013-08-02 08:40:00,65.6,52.7,29.92,North,11,0.0,0.0,63,0.00,,,0.03,Wunderground v.1.15,2013-08-02 14:40:00,
2013-08-02 08:50:00,67.1,52.7,29.89,North,11,0.0,0.0,60,0.00,,,0.03,Wunderground v.1.15,2013-08-02 14:50:00,
2013-08-02 09:00:00,67.4,52.6,29.90,North,11,0.0,0.0,59,0.00,,,0.03,Wunderground v.1.15,2013-08-02 15:00:00,
2013-08-02 09:10:00,67.3,51.5,29.90,WSW,244,1.0,1.0,57,0.00,,,0.03,Wunderground v.1.15,2013-08-02 15:10:00,
2013-08-02 09:20:00,65.8,53.7,29.89,NNE,18,2.0,2.0,65,0.14,,,0.06,Wunderground v.1.15,2013-08-02 15:20:00,
2013-08-02 09:31:00,63.7,54.5,29.91,NE,44,2.0,2.0,72,0.04,,,0.06,Wunderground v.1.15,2013-08-02 15:31:00,
2013-08-02 09:40:00,65.0,56.5,29.91,NE,44,2.0,2.0,74,0.00,,,0.06,Wunderground v.1.15,2013-08-02 15:40:00,
2013-08-02 09:50:00,66.6,56.1,29.89,East,88,0.0,1.0,69,0.00,,,0.06,Wunderground v.1.15,2013-08-02 15:50:00,
2013-08-02 10:00:00,67.9,57.8,29.88,East,88,0.0,0.0,70,0.00,,,0.06,Wunderground v.1.15,2013-08-02 16:00:00,
2013-08-02 10:10:00,69.6,56.4,29.88,ENE,69,1.0,1.0,63,0.00,,,0.06,Wunderground v.1.15,2013-08-02 16:10:00,
2013-08-02 10:21:00,70.8,52.3,29.86,NNE,25,2.0,2.0,52,0.00,,,0.06,Wunderground v.1.15,2013-08-02 16:21:00,
2013-08-02 10:31:00,69.6,51.7,29.87,NE,49,3.0,3.0,53,0.00,,,0.06,Wunderground v.1.15,2013-08-02 16:31:00,
2013-08-02 10:40:00,69.1,51.8,29.87,SW,220,2.0,6.0,54,0.00,,,0.06,Wunderground v.1.15,2013-08-02 16:40:00,
2013-08-02 10:50:00,69.1,50.2,29.89,WSW,241,4.0,5.0,51,0.00,,,0.06,Wunderground v.1.15,2013-08-02 16:50:00,
2013-08-02 11:01:00,70.1,50.0,29.87,West,278,3.0,3.0,49,0.00,,,0.06,Wunderground v.1.15,2013-08-02 17:01:00,
2013-08-02 11:10:00,70.4,49.8,29.87,NNE,21,4.0,7.0,48,0.00,,,0.06,Wunderground v.1.15,2013-08-02 17:10:00,
2013-08-02 11:20:00,70.4,50.3,29.86,SE,144,4.0,4.0,49,0.00,,,0.06,Wunderground v.1.15,2013-08-02 17:20:00,
2013-08-02 11:31:00,72.3,50.4,29.85,NW,325,1.0,2.0,46,0.00,,,0.06,Wunderground v.1.15,2013-08-02 17:31:00,
2013-08-02 11:40:00,72.8,50.2,29.85,WSW,239,2.0,7.0,45,0.00,,,0.06,Wunderground v.1.15,2013-08-02 17:40:00,
2013-08-02 11:50:00,72.8,49.0,29.84,WSW,237,3.0,5.0,43,0.00,,,0.06,Wunderground v.1.15,2013-08-02 17:50:00,
2013-08-02 12:01:00,72.8,49.6,29.84,NNW,332,3.0,3.0,44,0.00,,,0.06,Wunderground v.1.15,2013-08-02 18:01:00,
2013-08-02 12:11:00,73.5,49.0,29.84,North,353,4.0,4.0,42,0.00,,,0.06,Wunderground v.1.15,2013-08-02 18:11:00,
2013-08-02 12:21:00,73.9,48.7,29.82,NNW,344,3.0,3.0,41,0.00,,,0.06,Wunderground v.1.15,2013-08-02 18:21:00,
2013-08-02 12:30:00,75.3,49.3,29.82,North,359,3.0,5.0,40,0.00,,,0.06,Wunderground v.1.15,2013-08-02 18:30:00,
2013-08-02 12:41:00,75.6,49.6,29.82,West,267,3.0,3.0,40,0.00,,,0.06,Wunderground v.1.15,2013-08-02 18:41:00,
2013-08-02 12:51:00,76.8,50.6,29.80,SSE,158,2.0,5.0,40,0.00,,,0.06,Wunderground v.1.15,2013-08-02 18:51:00,
2013-08-02 13:00:00,75.8,49.1,29.79,West,268,3.0,6.0,39,0.00,,,0.06,Wunderground v.1.15,2013-08-02 19:00:00,
2013-08-02 13:10:00,76.7,49.9,29.79,NNE,13,2.0,2.0,39,0.00,,,0.06,Wunderground v.1.15,2013-08-02 19:10:00,
2013-08-02 13:20:00,77.4,49.1,29.78,SW,232,2.0,7.0,37,0.00,,,0.06,Wunderground v.1.15,2013-08-02 19:20:00,
2013-08-02 13:30:00,78.1,50.4,29.78,WSW,244,3.0,3.0,38,0.00,,,0.06,Wunderground v.1.15,2013-08-02 19:30:00,
2013-08-02 13:41:00,78.1,47.4,29.78,NNE,27,3.0,6.0,34,0.00,,,0.06,Wunderground v.1.15,2013-08-02 19:41:00,
2013-08-02 13:50:00,80.5,50.3,29.76,ENE,62,2.0,2.0,35,0.00,,,0.06,Wunderground v.1.15,2013-08-02 19:50:00,
2013-08-02 14:00:00,78.5,49.3,29.76,SW,215,6.0,16.0,36,0.00,,,0.06,Wunderground v.1.15,2013-08-02 20:00:00,
2013-08-02 14:10:00,77.4,48.3,29.76,SSE,161,9.0,9.0,36,0.00,,,0.06,Wunderground v.1.15,2013-08-02 20:10:00,
2013-08-02 14:21:00,78.6,47.1,29.82,South,181,7.0,7.0,33,0.00,,,0.06,Wunderground v.1.15,2013-08-02 20:21:00,
2013-08-02 14:30:00,80.5,47.9,29.78,ENE,78,4.0,4.0,32,0.00,,,0.06,Wunderground v.1.15,2013-08-02 20:30:00,
2013-08-02 14:40:00,81.6,48.9,29.78,ENE,75,2.0,2.0,32,0.00,,,0.06,Wunderground v.1.15,2013-08-02 20:40:00,
2013-08-02 14:51:00,82.6,49.7,29.75,SE,130,5.0,5.0,32,0.00,,,0.06,Wunderground v.1.15,2013-08-02 20:51:00,
2013-08-02 15:00:00,79.4,47.8,29.76,SSE,158,5.0,7.0,33,0.00,,,0.06,Wunderground v.1.15,2013-08-02 21:00:00,
2013-08-02 15:11:00,78.5,45.3,29.76,SW,233,9.0,9.0,31,0.00,,,0.06,Wunderground v.1.15,2013-08-02 21:11:00,
2013-08-02 15:21:00,79.4,46.1,29.78,SW,217,5.0,5.0,31,0.00,,,0.06,Wunderground v.1.15,2013-08-02 21:21:00,
2013-08-02 15:30:00,79.4,42.5,29.78,NE,45,6.0,6.0,27,0.00,,,0.06,Wunderground v.1.15,2013-08-02 21:30:00,
2013-08-02 15:40:00,80.7,44.6,29.78,North,357,5.0,5.0,28,0.00,,,0.06,Wunderground v.1.15,2013-08-02 21:40:00,
2013-08-02 15:50:00,81.2,42.0,29.75,West,275,4.0,4.0,25,0.00,,,0.06,Wunderground v.1.15,2013-08-02 21:50:00,
2013-08-02 16:00:00,80.5,43.4,29.76,South,175,3.0,5.0,27,0.00,,,0.06,Wunderground v.1.15,2013-08-02 22:00:00,
2013-08-02 16:10:00,82.2,44.9,29.76,East,89,4.0,4.0,27,0.00,,,0.06,Wunderground v.1.15,2013-08-02 22:10:00,
2013-08-02 16:20:00,83.8,44.2,29.73,NE,48,2.0,2.0,25,0.00,,,0.06,Wunderground v.1.15,2013-08-02 22:20:00,
2013-08-02 16:31:00,80.7,44.6,29.74,SSW,199,3.0,11.0,28,0.00,,,0.06,Wunderground v.1.15,2013-08-02 22:31:00,
2013-08-02 16:40:00,79.0,44.9,29.74,SSE,155,5.0,5.0,30,0.00,,,0.06,Wunderground v.1.15,2013-08-02 22:40:00,
2013-08-02 16:50:00,78.8,46.4,29.75,SE,143,8.0,8.0,32,0.00,,,0.06,Wunderground v.1.15,2013-08-02 22:50:00,
2013-08-02 17:00:00,80.5,44.4,29.74,SSW,192,2.0,7.0,28,0.00,,,0.06,Wunderground v.1.15,2013-08-02 23:00:00,
2013-08-02 17:10:00,78.1,43.2,29.74,South,169,7.0,7.0,29,0.00,,,0.06,Wunderground v.1.15,2013-08-02 23:10:00,
2013-08-02 17:21:00,78.3,43.4,29.79,SSW,202,3.0,7.0,29,0.00,,,0.06,Wunderground v.1.15,2013-08-02 23:21:00,
2013-08-02 17:30:00,77.0,45.7,29.80,SSE,161,5.0,7.0,33,0.00,,,0.06,Wunderground v.1.15,2013-08-02 23:30:00,
2013-08-02 17:40:00,76.7,45.4,29.80,SW,227,5.0,5.0,33,0.00,,,0.06,Wunderground v.1.15,2013-08-02 23:40:00,
2013-08-02 17:51:00,76.5,44.4,29.80,South,171,5.0,5.0,32,0.00,,,0.06,Wunderground v.1.15,2013-08-02 23:51:00,
2013-08-02 18:00:00,76.5,44.4,29.80,SW,236,5.0,5.0,32,0.00,,,0.06,Wunderground v.1.15,2013-08-03 00:00:00,
2013-08-02 18:11:00,76.5,43.6,29.80,SW,223,6.0,7.0,31,0.00,,,0.06,Wunderground v.1.15,2013-08-03 00:11:00,
2013-08-02 18:20:00,76.3,45.1,29.79,SSE,157,5.0,5.0,33,0.00,,,0.06,Wunderground v.1.15,2013-08-03 00:20:00,
2013-08-02 18:30:00,76.1,44.9,29.80,SW,224,4.0,4.0,33,0.00,,,0.06,Wunderground v.1.15,2013-08-03 00:30:00,
2013-08-02 18:41:00,76.0,45.6,29.80,South,171,3.0,3.0,34,0.00,,,0.06,Wunderground v.1.15,2013-08-03 00:41:00,
2013-08-02 18:51:00,76.0,44.0,29.80,WSW,244,1.0,1.0,32,0.00,,,0.06,Wunderground v.1.15,2013-08-03 00:51:00,
2013-08-02 19:00:00,75.6,43.7,29.80,SSE,162,2.0,2.0,32,0.00,,,0.06,Wunderground v.1.15,2013-08-03 01:00:00,
2013-08-02 19:10:00,75.3,44.2,29.80,SSE,167,3.0,6.0,33,0.00,,,0.06,Wunderground v.1.15,2013-08-03 01:10:00,
2013-08-02 19:20:00,74.7,43.7,29.79,SSE,160,4.0,4.0,33,0.00,,,0.06,Wunderground v.1.15,2013-08-03 01:20:00,
2013-08-02 19:30:00,74.6,42.8,29.80,SSE,155,2.0,5.0,32,0.00,,,0.06,Wunderground v.1.15,2013-08-03 01:30:00,
2013-08-02 19:40:00,74.4,43.4,29.80,SW,232,3.0,3.0,33,0.00,,,0.06,Wunderground v.1.15,2013-08-03 01:40:00,
2013-08-02 19:50:00,74.6,42.8,29.80,SW,232,0.0,2.0,32,0.00,,,0.06,Wunderground v.1.15,2013-08-03 01:50:00,
2013-08-02 20:01:00,74.2,-99.9,29.81,SW,229,1.0,1.0,255,0.00,,,0.06,Wunderground v.1.15,2013-08-03 02:01:00,
2013-08-02 20:11:00,74.0,43.1,29.81,SW,229,0.0,0.0,33,0.00,,,0.06,Wunderground v.1.15,2013-08-03 02:11:00,
2013-08-02 20:21:00,73.2,44.6,29.76,SW,229,0.0,0.0,36,0.00,,,0.06,Wunderground v.1.15,2013-08-03 02:21:00,
2013-08-02 20:31:00,72.8,44.3,29.77,SW,229,0.0,0.0,36,0.00,,,0.06,Wunderground v.1.15,2013-08-03 02:31:00,
2013-08-02 20:40:00,72.0,45.7,29.77,SW,229,0.0,0.0,39,0.00,,,0.06,Wunderground v.1.15,2013-08-03 02:40:00,
2013-08-02 20:50:00,71.3,45.1,29.79,SW,229,1.0,1.0,39,0.00,,,0.06,Wunderground v.1.15,2013-08-03 02:50:00,
2013-08-02 21:01:00,71.1,46.8,29.80,SW,229,0.0,0.0,42,0.00,,,0.06,Wunderground v.1.15,2013-08-03 03:01:00,
2013-08-02 21:11:00,70.4,46.2,29.80,SW,229,0.0,1.0,42,0.00,,,0.06,Wunderground v.1.15,2013-08-03 03:11:00,
2013-08-02 21:20:00,70.4,48.0,29.80,SW,229,0.0,0.0,45,0.00,,,0.06,Wunderground v.1.15,2013-08-03 03:20:00,
2013-08-02 21:30:00,69.9,48.7,29.81,SW,229,0.0,0.0,47,0.00,,,0.06,Wunderground v.1.15,2013-08-03 03:30:00,
2013-08-02 21:41:00,69.1,48.6,29.81,SW,229,0.0,0.0,48,0.00,,,0.06,Wunderground v.1.15,2013-08-03 03:41:00,
2013-08-02 21:51:00,68.4,45.6,29.82,SW,229,0.0,0.0,44,0.00,,,0.06,Wunderground v.1.15,2013-08-03 03:51:00,
2013-08-02 22:00:00,67.8,45.1,29.83,SW,229,0.0,0.0,44,0.00,,,0.06,Wunderground v.1.15,2013-08-03 04:00:00,
2013-08-02 22:10:00,67.9,45.8,29.83,SW,229,0.0,0.0,45,0.00,,,0.06,Wunderground v.1.15,2013-08-03 04:10:00,
2013-08-02 22:20:00,66.9,44.9,29.82,SW,229,0.0,0.0,45,0.00,,,0.06,Wunderground v.1.15,2013-08-03 04:20:00,
2013-08-02 22:31:00,67.6,43.7,29.87,ESE,109,1.0,1.0,42,0.00,,,0.06,Wunderground v.1.15,2013-08-03 04:31:00,
2013-08-02 22:40:00,68.3,45.5,29.87,ESE,103,1.0,1.0,44,0.00,,,0.06,Wunderground v.1.15,2013-08-03 04:40:00,
2013-08-02 22:50:00,67.9,45.2,29.85,SSE,151,3.0,3.0,44,0.00,,,0.06,Wunderground v.1.15,2013-08-03 04:50:00,
2013-08-02 23:00:00,67.3,45.2,29.87,ENE,61,2.0,6.0,45,0.00,,,0.06,Wunderground v.1.15,2013-08-03 05:00:00,
2013-08-02 23:11:00,65.3,45.1,29.87,ENE,59,7.0,7.0,48,0.00,,,0.06,Wunderground v.1.15,2013-08-03 05:11:00,
2013-08-02 23:21:00,63.4,44.9,29.89,ENE,62,7.0,7.0,51,0.00,,,0.06,Wunderground v.1.15,2013-08-03 05:21:00,
2013-08-02 23:30:00,62.7,46.3,29.91,ENE,69,4.0,4.0,55,0.00,,,0.06,Wunderground v.1.15,2013-08-03 05:30:00,
2013-08-02 23:40:00,60.4,48.6,29.91,NE,34,6.0,6.0,65,0.00,,,0.06,Wunderground v.1.15,2013-08-03 05:40:00,
2013-08-02 23:50:00,58.3,48.9,29.94,NNE,23,7.0,7.0,71,0.81,,,0.12,Wunderground v.1.15,2013-08-03 05:50:00,